| time (UTC) | temp F | wind direction | speed knots | gust knots | rain 1hr in | rain 24hr in | rain mn in | humidity % | barometer mb |
| 20260906071513 | 68 | 76 | 2.6 | 6.1 | 0.00 | 0.02 | 0.00 | 91 | 1015.3 |
| 20260906070049 | 68 | 69 | 0.9 | 7.0 | 0.00 | 0.02 | 0.00 | 91 | 1015.3 |
| 20260906064507 | 69 | 106 | 3.5 | 8.7 | 0.00 | 0.02 | 0.00 | 91 | 1015.6 |
| 20260906063028 | 70 | 87 | 3.5 | 8.7 | 0.00 | 0.02 | 0.00 | 92 | 1015.3 |
| 20260906061623 | 70 | 107 | 1.7 | 9.6 | 0.00 | 0.02 | 0.00 | 92 | 1015.3 |
| 20260906060022 | 70 | 150 | 0.9 | 7.0 | 0.00 | 0.02 | 0.00 | 92 | 1015.3 |
| 20260906054551 | 70 | 104 | 2.6 | 6.1 | 0.00 | 0.02 | 0.00 | 92 | 1015.3 |
| 20260906053002 | 70 | 114 | 0.9 | 7.8 | 0.00 | 0.02 | 0.00 | 92 | 1015.3 |
| 20260906051526 | 71 | 116 | 3.5 | 7.0 | 0.00 | 0.02 | 0.00 | 92 | 1014.9 |
| 20260906050046 | 71 | 156 | 0.9 | 7.0 | 0.00 | 0.02 | 0.00 | 92 | 1014.8 |
| 20260906044558 | 71 | 116 | 0.9 | 7.8 | 0.00 | 0.02 | 0.00 | 91 | 1014.8 |
| 20260906043028 | 72 | 106 | 2.6 | 7.8 | 0.00 | 0.02 | 0.00 | 91 | 1014.5 |
| 20260906041546 | 72 | 134 | 2.6 | 9.6 | 0.00 | 0.02 | 0.00 | 91 | 1014.4 |
| 20260906040115 | 72 | 93 | 2.6 | 7.8 | 0.00 | 0.02 | 0.00 | 91 | 1014.5 |
| 20260906034530 | 72 | 82 | 2.6 | 4.3 | 0.00 | 0.02 | 0.02 | 90 | 1014.7 |
| 20260906033050 | 72 | 139 | 0.0 | 0.0 | 0.00 | 0.02 | 0.02 | 90 | 1014.3 |
| 20260906031529 | 72 | 146 | 0.0 | 1.7 | 0.00 | 0.02 | 0.02 | 89 | 1014.5 |
| 20260906030046 | 72 | 141 | 0.0 | 1.7 | 0.00 | 0.02 | 0.02 | 88 | 1014.5 |
| 20260906024516 | 72 | 146 | 0.0 | 1.7 | 0.00 | 0.02 | 0.02 | 87 | 1014.5 |
| 20260906023102 | 72 | 146 | 0.0 | 1.7 | 0.00 | 0.02 | 0.02 | 86 | 1014.6 |
| 20260906021510 | 72 | 133 | 0.0 | 3.5 | 0.00 | 0.02 | 0.02 | 85 | 1014.5 |
| 20260906020035 | 72 | 152 | 0.0 | 4.3 | 0.00 | 0.02 | 0.02 | 84 | 1014.6 |
| 20260906014506 | 72 | 117 | 0.0 | 3.5 | 0.00 | 0.02 | 0.02 | 82 | 1014.0 |
| 20260906013032 | 73 | 145 | 0.0 | 2.6 | 0.00 | 0.02 | 0.02 | 80 | 1013.9 |
| 20260906011559 | 73 | 121 | 0.0 | 3.5 | 0.00 | 0.02 | 0.02 | 79 | 1013.5 |
| 20260906010004 | 74 | 135 | 0.0 | 2.6 | 0.00 | 0.02 | 0.02 | 77 | 1013.4 |
| 20260906004544 | 74 | 142 | 0.0 | 2.6 | 0.00 | 0.02 | 0.02 | 77 | 1013.2 |
| 20260906003104 | 75 | 158 | 0.9 | 2.6 | 0.00 | 0.02 | 0.02 | 75 | 1013.3 |
| 20260906001544 | 76 | 133 | 0.0 | 1.7 | 0.00 | 0.02 | 0.02 | 75 | 1013.1 |
| 20260906000108 | 76 | 129 | 0.0 | 5.2 | 0.00 | 0.02 | 0.02 | 74 | 1012.7 |
| 20260905234547 | 76 | 93 | 1.7 | 7.8 | 0.00 | 0.02 | 0.02 | 74 | 1012.7 |
| 20260905233057 | 77 | 89 | 3.5 | 7.8 | 0.00 | 0.02 | 0.02 | 72 | 1012.7 |
| 20260905231532 | 78 | 64 | 8.7 | 12.2 | 0.00 | 0.02 | 0.02 | 70 | 1012.9 |
| 20260905230050 | 83 | 114 | 12.2 | 25.2 | 0.00 | 0.02 | 0.02 | 64 | 1013.2 |
| 20260905224512 | 86 | 22 | 0.9 | 5.2 | 0.00 | 0.02 | 0.02 | 64 | 1012.8 |
| 20260905223044 | 87 | 274 | 0.9 | 4.3 | 0.00 | 0.02 | 0.02 | 63 | 1012.7 |
| 20260905221520 | 88 | 312 | 2.6 | 5.2 | 0.00 | 0.02 | 0.02 | 61 | 1012.2 |
| 20260905220034 | 89 | 296 | 1.7 | 5.2 | 0.00 | 0.02 | 0.02 | 59 | 1012.4 |
| 20260905214518 | 89 | 33 | 2.6 | 8.7 | 0.00 | 0.02 | 0.02 | 58 | 1012.9 |
| 20260905213029 | 88 | 10 | 4.3 | 8.7 | 0.00 | 0.02 | 0.02 | 57 | 1012.7 |
| 20260905211609 | 88 | 12 | 5.2 | 8.7 | 0.00 | 0.02 | 0.02 | 57 | 1012.7 |
| 20260905210031 | 88 | 349 | 4.3 | 8.7 | 0.00 | 0.02 | 0.02 | 56 | 1013.0 |
| 20260905204600 | 88 | 337 | 5.2 | 8.7 | 0.00 | 0.02 | 0.02 | 56 | 1012.8 |
| 20260905203026 | 89 | 305 | 2.6 | 7.8 | 0.00 | 0.02 | 0.02 | 55 | 1013.0 |
| 20260905201552 | 88 | 29 | 0.9 | 8.7 | 0.00 | 0.02 | 0.02 | 57 | 1013.1 |
| 20260905200109 | 88 | 295 | 3.5 | 8.7 | 0.00 | 0.02 | 0.02 | 57 | 1013.3 |
| 20260905194538 | 88 | 296 | 5.2 | 11.3 | 0.00 | 0.50 | 0.02 | 57 | 1013.4 |
| 20260905193051 | 88 | 348 | 4.3 | 9.6 | 0.00 | 0.50 | 0.02 | 57 | 1013.9 |
| 20260905191512 | 87 | 294 | 5.2 | 8.7 | 0.00 | 0.50 | 0.02 | 56 | 1014.2 |
| 20260905190044 | 87 | 302 | 5.2 | 8.7 | 0.00 | 0.50 | 0.02 | 58 | 1014.3 |